Flag for Germany Weather past 2 weeks in Pirna, Saxony, Germany

Now
35 °F

Rain. Low clouds.


Feels Like: 27 °F
Forecast: 36 / 42 °F
Wind: 10 mph from South

Location: Dresden-Klotzsche

Current Time: Mar 31, 2015 at 8:53:49 AM

Latest Report: Mar 31, 2015 at 8:00 AM


Visibility: 6 mi

Pressure: 29.32 "Hg

Humidity: 97%

Dew point: 34 °F

Location of PirnaLocation

Historic Weather in Pirna — Graph

°F

Pirna temperature yesterday

Maximum temperature yesterday: 51 °F (at 12:00 AM)
Minimum temperature yesterday: 39 °F (at 10:00 PM)
Average temperature yesterday: 44 °F

Past Weeks' High & Low Weather Summary

 TemperatureHumidityPressure
High64 °F (Mar 25, 3:00 PM)99% (Mar 27, 12:00 AM)30.39 "Hg (Mar 27, 12:00 AM)
Low26 °F (Mar 23, 3:00 AM)26% (Mar 19, 4:00 PM)29.23 "Hg (Mar 30, 12:00 AM)
Average44 °F69%30.01 "Hg
* Reported Mar 16 6:00 AM — Mar 31 7:00 AM, Pirna, Weather by CustomWeather, © 2015

Note: Actual official high and low records may vary slightly from our data, if they occured in-between our weather recording intervals... More about our weather records

Advertising

Pirna weather history for previous 24 hours

 ConditionsComfort  
Time TempWeatherWind HumidityBarometerVisibility
7:00 AM
Tue, Mar 31
33 °FSnow. Low clouds.9 mph98%29.41 "Hg1 mi
6:00 AM35 °FLight rain. Low clouds.9 mph91%29.50 "Hg8 mi
4:00 AM39 °FOvercast.7 mph68%29.67 "Hg19 mi
3:00 AM38 °FOvercast.8 mph70%29.72 "Hg19 mi
2:00 AM38 °FOvercast.8 mph72%29.75 "Hg22 mi
1:00 AM38 °FPassing clouds.8 mph74%29.77 "Hg22 mi
12:00 AM39 °FOvercast.9 mph78%29.78 "Hg25 mi
10:00 PM
Mon, Mar 30
39 °FPassing clouds.10 mph74%29.75 "Hg37 mi
9:00 PM40 °FPassing clouds.10 mph75%29.72 "Hg37 mi
8:00 PM41 °FPassing clouds.9 mph71%29.67 "Hg37 mi
7:00 PM43 °FScattered clouds.13 mph69%29.62 "Hg28 mi
6:00 PM44 °FPartly sunny.10 mph57%29.58 "Hg22 mi
4:00 PM40 °FSprinkles. Overcast.14 mph76%29.50 "Hg11 mi
3:00 PM44 °FOvercast.15 mph64%29.47 "Hg28 mi
2:00 PM44 °FSprinkles. Partly sunny.14 mph68%29.44 "Hg31 mi
1:00 PM45 °FPartly sunny.16 mph66%29.41 "Hg34 mi
12:00 PM41 °FSprinkles. Overcast.12 mph77%29.41 "Hg34 mi
11:00 AM45 °FPartly sunny.13 mph65%29.35 "Hg34 mi
10:00 AM42 °FSprinkles. Partly sunny.16 mph67%29.35 "Hg31 mi
9:00 AM43 °FPartly sunny.8 mph77%29.32 "Hg31 mi
8:00 AM45 °FOvercast.13 mph66%29.29 "Hg31 mi
Weather by CustomWeather, © 2015

See weather overviewHow to use our weather pages